| time (UTC) | temp F | wind direction | speed knots | gust knots | rain 1hr in | rain 24hr in | rain mn in | humidity % | barometer mb |
| 20260504081651 | 59 | 328 | 0.9 | 2.6 | 0.00 | 0.00 | 0.00 | 82 | 1018.0 |
| 20260504081147 | 59 | 297 | 0.9 | 0.9 | 0.00 | 0.00 | 0.00 | 82 | 1018.0 |
| 20260504080643 | 59 | 303 | 1.7 | 2.6 | 0.00 | 0.00 | 0.00 | 82 | 1018.0 |
| 20260504080140 | 59 | 333 | 0.9 | 0.9 | 0.00 | 0.00 | 0.00 | 82 | 1018.0 |
| 20260504070108 | 60 | 337 | 0.9 | 1.7 | 0.00 | 0.00 | 0.00 | 79 | 1018.0 |
| 20260504050456 | 60 | 292 | 1.7 | 1.7 | 0.00 | 0.00 | 0.00 | 74 | 1017.6 |
| 20260504045953 | 60 | 255 | 1.7 | 2.6 | 0.00 | 0.00 | 0.00 | 73 | 1017.3 |
| 20260504045449 | 60 | 334 | 0.0 | 1.7 | 0.00 | 0.00 | 0.00 | 73 | 1017.3 |
| 20260504044945 | 60 | 332 | 0.0 | 2.6 | 0.00 | 0.00 | 0.00 | 73 | 1017.3 |
| 20260504044443 | 60 | 330 | 0.9 | 1.7 | 0.00 | 0.00 | 0.00 | 74 | 1017.3 |
| 20260504043940 | 60 | 328 | 0.0 | 0.9 | 0.00 | 0.00 | 0.00 | 74 | 1017.3 |
| 20260504043437 | 60 | 314 | 0.9 | 1.7 | 0.00 | 0.00 | 0.00 | 74 | 1017.3 |
| 20260504042935 | 60 | 257 | 2.6 | 3.5 | 0.00 | 0.00 | 0.00 | 74 | 1017.3 |
| 20260504042431 | 60 | 249 | 1.7 | 3.5 | 0.00 | 0.00 | 0.00 | 74 | 1017.3 |
| 20260504041928 | 60 | 290 | 2.6 | 5.2 | 0.00 | 0.00 | 0.00 | 74 | 1017.3 |
| 20260504041424 | 60 | 327 | 1.7 | 3.5 | 0.00 | 0.00 | 0.00 | 75 | 1017.0 |
| 20260504040920 | 60 | 207 | 1.7 | 3.5 | 0.00 | 0.00 | 0.00 | 76 | 1017.0 |
| 20260504040418 | 60 | 340 | 0.0 | 0.9 | 0.00 | 0.00 | 0.00 | 77 | 1017.0 |
| 20260504035914 | 60 | 194 | 3.5 | 3.5 | 0.00 | 0.00 | 0.00 | 77 | 1017.0 |
| 20260504035412 | 60 | 307 | 1.7 | 2.6 | 0.00 | 0.00 | 0.00 | 77 | 1016.6 |
| 20260504034908 | 60 | 204 | 1.7 | 2.6 | 0.00 | 0.00 | 0.00 | 78 | 1017.0 |
| 20260504034405 | 60 | 263 | 0.9 | 3.5 | 0.00 | 0.00 | 0.00 | 79 | 1016.6 |
| 20260504033902 | 60 | 257 | 2.6 | 3.5 | 0.00 | 0.00 | 0.00 | 79 | 1017.0 |
| 20260504033400 | 60 | 344 | 0.0 | 1.7 | 0.00 | 0.00 | 0.00 | 80 | 1017.0 |
| 20260504032857 | 60 | 251 | 0.9 | 1.7 | 0.00 | 0.00 | 0.00 | 80 | 1017.0 |
| 20260504032354 | 60 | 273 | 1.7 | 3.5 | 0.00 | 0.00 | 0.00 | 80 | 1016.6 |
| 20260504031850 | 60 | 289 | 1.7 | 3.5 | 0.00 | 0.00 | 0.00 | 80 | 1016.3 |
| 20260504031348 | 60 | 267 | 4.3 | 5.2 | 0.00 | 0.00 | 0.00 | 79 | 1016.3 |
| 20260504030844 | 60 | 289 | 1.7 | 3.5 | 0.00 | 0.00 | 0.00 | 78 | 1016.6 |
| 20260504030341 | 60 | 334 | 0.9 | 2.6 | 0.00 | 0.00 | 0.00 | 78 | 1016.6 |
| 20260504025837 | 60 | 324 | 2.6 | 3.5 | 0.00 | 0.00 | 0.00 | 77 | 1016.6 |
| 20260504025334 | 60 | 272 | 0.9 | 2.6 | 0.00 | 0.00 | 0.00 | 77 | 1016.3 |
| 20260504024831 | 60 | 301 | 0.9 | 5.2 | 0.00 | 0.00 | 0.00 | 77 | 1016.3 |
| 20260504024327 | 60 | 321 | 0.9 | 1.7 | 0.00 | 0.00 | 0.00 | 78 | 1016.3 |
| 20260504023824 | 60 | 261 | 3.5 | 5.2 | 0.00 | 0.00 | 0.00 | 79 | 1016.3 |
| 20260504023321 | 60 | 238 | 5.2 | 6.1 | 0.00 | 0.00 | 0.00 | 79 | 1016.3 |
| 20260504022816 | 60 | 328 | 0.0 | 5.2 | 0.00 | 0.00 | 0.00 | 79 | 1016.3 |
| 20260504022314 | 60 | 315 | 1.7 | 2.6 | 0.00 | 0.00 | 0.00 | 79 | 1016.3 |
| 20260504021810 | 60 | 197 | 4.3 | 7.0 | 0.00 | 0.00 | 0.00 | 78 | 1016.0 |
| 20260504021308 | 60 | 256 | 2.6 | 5.2 | 0.00 | 0.00 | 0.00 | 78 | 1016.0 |
| 20260504020804 | 61 | 183 | 2.6 | 3.5 | 0.00 | 0.00 | 0.00 | 77 | 1016.0 |
| 20260504020301 | 60 | 221 | 1.7 | 5.2 | 0.00 | 0.00 | 0.00 | 77 | 1016.0 |
| 20260504015757 | 61 | 261 | 2.6 | 3.5 | 0.00 | 0.00 | 0.00 | 77 | 1016.0 |
| 20260504015254 | 61 | 250 | 0.9 | 6.1 | 0.00 | 0.00 | 0.00 | 77 | 1016.0 |
| 20260504014750 | 61 | 244 | 3.5 | 6.1 | 0.00 | 0.00 | 0.00 | 76 | 1016.0 |
| 20260504014246 | 61 | 299 | 0.9 | 1.7 | 0.00 | 0.00 | 0.00 | 76 | 1016.0 |
| 20260504013744 | 61 | 329 | 0.9 | 2.6 | 0.00 | 0.00 | 0.00 | 76 | 1016.0 |
| 20260504013242 | 61 | 267 | 1.7 | 2.6 | 0.00 | 0.00 | 0.00 | 75 | 1015.6 |
| 20260504012738 | 61 | 229 | 3.5 | 5.2 | 0.00 | 0.00 | 0.00 | 75 | 1016.0 |
| 20260504012236 | 61 | 182 | 4.3 | 6.1 | 0.00 | 0.00 | 0.00 | 75 | 1016.0 |
| 20260504011732 | 62 | 334 | 0.9 | 5.2 | 0.00 | 0.00 | 0.00 | 75 | 1016.0 |
| 20260504011229 | 62 | 221 | 2.6 | 2.6 | 0.00 | 0.00 | 0.00 | 75 | 1016.0 |
| 20260504010725 | 62 | 239 | 2.6 | 3.5 | 0.00 | 0.00 | 0.00 | 74 | 1016.0 |
| 20260504010221 | 62 | 264 | 0.9 | 2.6 | 0.00 | 0.00 | 0.00 | 75 | 1016.0 |
| 20260504005718 | 62 | 216 | 3.5 | 5.2 | 0.00 | 0.00 | 0.00 | 74 | 1016.0 |
| 20260504005215 | 63 | 319 | 1.7 | 2.6 | 0.00 | 0.00 | 0.00 | 73 | 1016.0 |
| 20260504004713 | 62 | 309 | 0.9 | 2.6 | 0.00 | 0.00 | 0.00 | 73 | 1015.6 |
| 20260504004209 | 63 | 264 | 3.5 | 5.2 | 0.00 | 0.00 | 0.00 | 72 | 1015.6 |
| 20260504003706 | 63 | 145 | 2.6 | 3.5 | 0.00 | 0.00 | 0.00 | 71 | 1015.6 |
| 20260504003203 | 64 | 312 | 3.5 | 5.2 | 0.00 | 0.00 | 0.00 | 69 | 1016.0 |
| 20260504002700 | 64 | 339 | 0.9 | 3.5 | 0.00 | 0.00 | 0.00 | 70 | 1015.6 |
| 20260504002157 | 64 | 292 | 0.9 | 2.6 | 0.00 | 0.00 | 0.00 | 70 | 1015.6 |
| 20260504001655 | 64 | 221 | 2.6 | 5.2 | 0.00 | 0.00 | 0.00 | 70 | 1015.6 |
| 20260504001151 | 64 | 238 | 1.7 | 1.7 | 0.00 | 0.00 | 0.00 | 70 | 1015.6 |
| 20260504000648 | 65 | 152 | 1.7 | 3.5 | 0.00 | 0.00 | 0.00 | 69 | 1015.3 |
| 20260504000145 | 64 | 207 | 1.7 | 2.6 | 0.00 | 0.00 | 0.00 | 70 | 1015.6 |
| 20260503235643 | 63 | 310 | 1.7 | 5.2 | 0.00 | 0.00 | 0.00 | 71 | 1015.3 |
| 20260503235140 | 63 | 336 | 0.9 | 3.5 | 0.00 | 0.00 | 0.00 | 73 | 1015.6 |
| 20260503234638 | 63 | 328 | 1.7 | 1.7 | 0.00 | 0.00 | 0.00 | 73 | 1015.3 |
| 20260503234136 | 63 | 318 | 1.7 | 5.2 | 0.00 | 0.00 | 0.00 | 73 | 1015.6 |
| 20260503233632 | 64 | 341 | 1.7 | 5.2 | 0.00 | 0.00 | 0.00 | 72 | 1015.3 |
| 20260503233128 | 63 | 334 | 1.7 | 2.6 | 0.00 | 0.00 | 0.00 | 73 | 1015.6 |
| 20260503232625 | 64 | 327 | 0.9 | 2.6 | 0.00 | 0.00 | 0.00 | 73 | 1015.6 |
| 20260503232122 | 64 | 356 | 0.9 | 5.2 | 0.00 | 0.00 | 0.00 | 73 | 1015.6 |
| 20260503231620 | 63 | 196 | 2.6 | 3.5 | 0.00 | 0.00 | 0.00 | 73 | 1015.6 |
| 20260503231116 | 63 | 302 | 3.5 | 6.1 | 0.00 | 0.00 | 0.00 | 73 | 1015.6 |
| 20260503230614 | 63 | 249 | 2.6 | 6.1 | 0.00 | 0.00 | 0.00 | 72 | 1016.0 |
| 20260503230111 | 63 | 285 | 2.6 | 5.2 | 0.00 | 0.00 | 0.00 | 72 | 1016.0 |
| 20260503225608 | 64 | 287 | 2.6 | 6.1 | 0.00 | 0.00 | 0.00 | 70 | 1016.0 |
| 20260503225108 | 65 | 352 | 1.7 | 5.2 | 0.00 | 0.00 | 0.00 | 70 | 1016.0 |
| 20260503224606 | 64 | 165 | 1.7 | 2.6 | 0.00 | 0.00 | 0.00 | 70 | 1016.0 |
| 20260503224103 | 64 | 232 | 4.3 | 6.1 | 0.00 | 0.00 | 0.00 | 71 | 1016.0 |
| 20260503223601 | 64 | 303 | 1.7 | 3.5 | 0.00 | 0.00 | 0.00 | 71 | 1016.0 |
| 20260503223056 | 64 | 325 | 1.7 | 5.2 | 0.00 | 0.00 | 0.00 | 69 | 1016.0 |
| 20260503222555 | 65 | 194 | 4.3 | 6.1 | 0.00 | 0.00 | 0.00 | 69 | 1016.0 |
| 20260503222052 | 64 | 266 | 2.6 | 3.5 | 0.00 | 0.00 | 0.00 | 70 | 1016.0 |
| 20260503221550 | 64 | 211 | 2.6 | 5.2 | 0.00 | 0.00 | 0.00 | 70 | 1016.3 |
| 20260503221047 | 65 | 213 | 4.3 | 5.2 | 0.00 | 0.00 | 0.00 | 67 | 1016.3 |
| 20260503220543 | 65 | 333 | 3.5 | 3.5 | 0.00 | 0.00 | 0.00 | 67 | 1016.3 |
| 20260503220041 | 66 | 198 | 4.3 | 7.0 | 0.00 | 0.00 | 0.00 | 67 | 1016.3 |
| 20260503215537 | 66 | 286 | 3.5 | 6.1 | 0.00 | 0.00 | 0.00 | 66 | 1016.3 |
| 20260503215034 | 68 | 287 | 2.6 | 3.5 | 0.00 | 0.00 | 0.00 | 64 | 1016.3 |
| 20260503214533 | 67 | 348 | 2.6 | 5.2 | 0.00 | 0.00 | 0.00 | 63 | 1016.6 |
| 20260503214029 | 66 | 321 | 0.9 | 3.5 | 0.00 | 0.00 | 0.00 | 66 | 1016.3 |
| 20260503213528 | 65 | 237 | 2.6 | 3.5 | 0.00 | 0.00 | 0.00 | 66 | 1016.3 |
| 20260503213024 | 65 | 280 | 1.7 | 7.0 | 0.00 | 0.00 | 0.00 | 67 | 1016.3 |
| 20260503212521 | 65 | 354 | 1.7 | 9.6 | 0.00 | 0.00 | 0.00 | 67 | 1016.6 |
| 20260503212019 | 66 | 315 | 0.9 | 5.2 | 0.00 | 0.00 | 0.00 | 65 | 1016.3 |
| 20260503211515 | 66 | 256 | 3.5 | 6.1 | 0.00 | 0.00 | 0.00 | 62 | 1016.6 |
| 20260503211011 | 66 | 309 | 1.7 | 6.1 | 0.00 | 0.00 | 0.00 | 64 | 1016.6 |
| 20260503210508 | 66 | 279 | 2.6 | 7.0 | 0.00 | 0.00 | 0.00 | 63 | 1016.6 |
| 20260503210004 | 66 | 264 | 1.7 | 5.2 | 0.00 | 0.00 | 0.00 | 65 | 1016.6 |
| 20260503205500 | 66 | 234 | 3.5 | 6.1 | 0.00 | 0.00 | 0.00 | 63 | 1016.3 |
| 20260503204956 | 67 | 228 | 3.5 | 5.2 | 0.00 | 0.00 | 0.00 | 60 | 1016.6 |
| 20260503204454 | 66 | 335 | 1.7 | 5.2 | 0.00 | 0.00 | 0.00 | 62 | 1016.6 |
| 20260503203950 | 66 | 284 | 1.7 | 3.5 | 0.00 | 0.00 | 0.00 | 63 | 1016.6 |
| 20260503203448 | 66 | 233 | 3.5 | 6.1 | 0.00 | 0.00 | 0.00 | 61 | 1016.6 |
| 20260503202944 | 65 | 302 | 1.7 | 3.5 | 0.00 | 0.00 | 0.00 | 62 | 1017.0 |
| 20260503202443 | 65 | 236 | 2.6 | 5.2 | 0.00 | 0.00 | 0.00 | 64 | 1016.6 |
| 20260503201941 | 65 | 235 | 0.9 | 3.5 | 0.00 | 0.00 | 0.00 | 65 | 1016.6 |
| 20260503201438 | 66 | 252 | 3.5 | 5.2 | 0.00 | 0.00 | 0.00 | 63 | 1017.0 |
| 20260503200935 | 67 | 267 | 2.6 | 3.5 | 0.00 | 0.00 | 0.00 | 61 | 1016.6 |
| 20260503200432 | 66 | 241 | 3.5 | 5.2 | 0.00 | 0.00 | 0.00 | 61 | 1016.6 |
| 20260503195928 | 66 | 189 | 3.5 | 5.2 | 0.00 | 0.00 | 0.00 | 60 | 1016.6 |
| 20260503195426 | 66 | 232 | 3.5 | 5.2 | 0.00 | 0.00 | 0.00 | 60 | 1017.0 |
| 20260503194922 | 66 | 329 | 0.9 | 2.6 | 0.00 | 0.00 | 0.00 | 61 | 1017.0 |
| 20260503194419 | 66 | 211 | 2.6 | 3.5 | 0.00 | 0.00 | 0.00 | 63 | 1017.0 |
| 20260503193914 | 67 | 258 | 1.7 | 6.1 | 0.00 | 0.00 | 0.00 | 61 | 1017.0 |
| 20260503193410 | 67 | 226 | 2.6 | 5.2 | 0.00 | 0.00 | 0.00 | 61 | 1017.0 |
| 20260503192906 | 67 | 322 | 1.7 | 6.1 | 0.00 | 0.00 | 0.00 | 62 | 1017.0 |
| 20260503192402 | 67 | 135 | 1.7 | 6.1 | 0.00 | 0.00 | 0.00 | 62 | 1017.0 |
| 20260503191858 | 66 | 253 | 3.5 | 5.2 | 0.00 | 0.00 | 0.00 | 63 | 1017.0 |
| 20260503191356 | 66 | 308 | 0.9 | 2.6 | 0.00 | 0.00 | 0.00 | 62 | 1017.0 |
| 20260503190852 | 67 | 240 | 1.7 | 6.1 | 0.00 | 0.00 | 0.00 | 63 | 1017.0 |
| 20260503190349 | 68 | 164 | 1.7 | 5.2 | 0.00 | 0.00 | 0.00 | 61 | 1017.0 |
| 20260503185846 | 68 | 287 | 3.5 | 5.2 | 0.00 | 0.00 | 0.00 | 62 | 1017.0 |
| 20260503185343 | 67 | 247 | 2.6 | 6.1 | 0.00 | 0.00 | 0.00 | 63 | 1017.0 |
| 20260503184842 | 66 | 330 | 4.3 | 6.1 | 0.00 | 0.00 | 0.00 | 64 | 1017.3 |
| 20260503184339 | 66 | 291 | 1.7 | 6.1 | 0.00 | 0.00 | 0.00 | 64 | 1017.0 |
| 20260503183835 | 65 | 235 | 1.7 | 3.5 | 0.00 | 0.00 | 0.00 | 65 | 1017.3 |
| 20260503183332 | 66 | 228 | 1.7 | 5.2 | 0.00 | 0.00 | 0.00 | 63 | 1017.3 |
| 20260503182830 | 66 | 229 | 1.7 | 2.6 | 0.00 | 0.00 | 0.00 | 65 | 1017.3 |
| 20260503182329 | 66 | 344 | 0.9 | 1.7 | 0.00 | 0.00 | 0.00 | 64 | 1017.3 |
| 20260503181825 | 65 | 323 | 0.0 | 1.7 | 0.00 | 0.00 | 0.00 | 65 | 1017.3 |
| 20260503181322 | 66 | 271 | 1.7 | 3.5 | 0.00 | 0.00 | 0.00 | 65 | 1017.3 |
| 20260503180819 | 64 | 336 | 0.9 | 0.9 | 0.00 | 0.00 | 0.00 | 68 | 1017.0 |
| 20260503180317 | 64 | 268 | 0.9 | 2.6 | 0.00 | 0.00 | 0.00 | 68 | 1017.3 |
| 20260503175813 | 63 | 282 | 0.9 | 2.6 | 0.00 | 0.00 | 0.00 | 69 | 1017.0 |
| 20260503175311 | 63 | 276 | 1.7 | 2.6 | 0.00 | 0.00 | 0.00 | 70 | 1017.3 |
| 20260503174806 | 63 | 312 | 0.0 | 0.0 | 0.00 | 0.00 | 0.00 | 71 | 1017.3 |
| 20260503174305 | 63 | 349 | 0.9 | 0.9 | 0.00 | 0.00 | 0.00 | 72 | 1017.3 |
| 20260503173800 | 62 | 254 | 1.7 | 1.7 | 0.00 | 0.00 | 0.00 | 72 | 1017.3 |
| 20260503173255 | 62 | 251 | 1.7 | 2.6 | 0.00 | 0.00 | 0.00 | 73 | 1017.3 |
| 20260503172753 | 62 | 342 | 1.7 | 6.1 | 0.00 | 0.00 | 0.00 | 73 | 1017.3 |
| 20260503172250 | 62 | 313 | 1.7 | 2.6 | 0.00 | 0.00 | 0.00 | 73 | 1017.3 |
| 20260503171746 | 62 | 234 | 1.7 | 2.6 | 0.00 | 0.00 | 0.00 | 74 | 1017.0 |
| 20260503171243 | 62 | 265 | 1.7 | 1.7 | 0.00 | 0.00 | 0.00 | 74 | 1017.3 |
| 20260503170740 | 62 | 284 | 0.0 | 0.0 | 0.00 | 0.00 | 0.00 | 75 | 1017.0 |
| 20260503170237 | 61 | 255 | 2.6 | 2.6 | 0.00 | 0.00 | 0.00 | 75 | 1017.0 |
| 20260503160159 | 60 | 256 | 2.6 | 3.5 | 0.00 | 0.00 | 0.00 | 77 | 1017.0 |
| 20260503150629 | 60 | 264 | 0.9 | 1.7 | 0.00 | 0.00 | 0.00 | 78 | 1016.3 |
| 20260503150125 | 60 | 312 | 0.0 | 0.0 | 0.00 | 0.00 | 0.00 | 79 | 1016.3 |
| 20260503131019 | 59 | 313 | 0.0 | 0.9 | 0.00 | 0.00 | 0.00 | 85 | 1015.3 |
| 20260503130517 | 59 | 305 | 0.0 | 2.6 | 0.00 | 0.00 | 0.00 | 85 | 1015.3 |
| 20260503110407 | 60 | 342 | 0.0 | 0.0 | 0.00 | 0.00 | 0.00 | 82 | 1015.3 |